Theta_e
287 286 286 284 285 284 284 283 282 281 280 279 279 279 279 278 278 278 278 277 277 278
287 286 286 284 284 284 283 282 280 280 279 279 278 278 277 277 277 277 278 277 278 277
286 285 285 281 282 282 281 281 279 279 279 278 277 277 276 276 276 276 276 277 276 277
285 284 284 282 282 280 280 280 279 279 278 277 276 276 275 275 275 275 275 275 275 275
284 283 283 282 281 280 280 279 279 278 277 276 276 275 275 274 274 273 273 273 273 273
283 282 283 282 281 280 279 278 278 277 276 275 275 274 274 274 273 272 272 273 272 272
283 283 283 282 280 280 279 277 277 276 276 274 274 273 273 273 272 271 272 272 272 272
283 283 282 280 279 279 278 277 276 274 274 273 273 273 272 272 272 271 271 272 273 273
282 281 280 279 278 277 276 275 274 274 273 272 273 277 278 274 272 272 272 272 273 274
281 279 278 278 276 275 275 274 273 273 272 272 272 279 279 277 273 273 273 273 273 273
279 278 276 276 275 275 274 274 273 272 273 272 272 280 281 279 275 274 274 273 273 273
279 278 275 275 275 275 274 273 273 273 272 272 272 280 281 279 274 274 273 273 274 273
278 278 276 276 275 275 274 273 273 272 272 272 271 279 280 279 273 272 272 273 274 276
276 277 276 276 274 273 273 272 272 271 271 271 271 275 280 280 273 271 271 272 272 274
Wind_Speed
16 11 11 13 10 10 11 10 10 10 9 8 8 7 7 4 3 5 5 6 4 3
14 14 14 11 11 10 8 8 10 11 10 9 9 9 8 5 6 5 4 4 5 3
15 14 12 9 13 11 9 11 12 13 12 10 9 9 8 5 5 6 6 4 5 3
15 14 13 12 13 13 13 14 15 15 14 13 11 9 8 7 7 7 7 6 5 5
13 14 15 15 15 14 15 14 14 14 14 13 12 11 10 10 9 9 9 8 6 5
14 15 18 16 15 16 15 15 15 15 16 14 13 12 10 9 8 8 8 9 8 7
17 19 18 15 15 16 16 16 15 15 15 14 13 12 11 10 10 8 8 8 8 8
17 14 13 14 15 15 15 15 15 15 12 12 12 10 13 12 11 10 9 8 8 8
14 15 16 15 15 15 15 14 14 15 15 14 9 20 23 15 10 10 9 8 8 7
13 15 15 15 15 16 16 14 14 13 14 14 12 24 23 21 10 10 8 8 7 6
15 15 14 16 17 16 15 17 16 15 15 14 13 26 27 25 11 9 9 8 7 6
16 16 16 16 17 16 15 15 14 13 14 13 10 25 25 20 10 9 9 7 7 6
9 11 13 13 14 12 11 12 11 12 12 13 11 23 23 18 8 9 7 7 7 10
7 9 9 9 9 10 11 11 11 12 11 11 12 14 23 22 9 8 6 6 5 5
Wind_Direction
196 189 196 188 186 190 194 192 179 178 165 162 162 160 163 166 179 154 150 164 166 173
197 197 201 185 182 182 177 168 163 171 169 168 166 166 165 171 174 165 149 160 159 165
201 196 192 172 180 177 167 162 164 170 168 169 169 167 166 168 171 162 150 149 153 144
199 193 185 186 182 174 167 171 174 174 167 169 171 172 168 167 172 169 148 140 159 161
195 188 187 191 184 171 175 173 172 169 169 170 171 170 174 172 179 176 159 156 155 169
196 194 200 194 182 174 172 172 170 172 174 172 173 171 174 171 171 174 161 162 168 176
199 201 199 190 181 178 177 171 174 177 172 172 167 166 166 170 174 171 170 170 178 185
202 196 192 182 180 176 175 175 173 166 166 169 165 168 172 174 175 170 169 179 190 195
187 182 188 178 177 173 173 170 168 173 169 170 171 181 186 177 171 165 172 184 197 209
185 181 183 172 169 175 176 165 170 172 168 171 174 184 187 184 171 169 173 187 199 208
182 184 174 171 176 174 169 173 173 179 178 174 178 185 186 184 170 170 172 189 195 217
183 180 174 179 182 176 172 170 176 176 174 176 178 187 184 178 163 167 191 196 206 217
181 185 186 178 177 174 174 173 164 165 171 170 168 189 187 173 162 174 176 195 210 226
158 166 164 158 164 155 161 158 168 159 159 160 166 188 188 183 181 176 175 192 196 198